Home > Weather > Kovrov > Past weeks

Flag for Russia Weather for the Past 2 Weeks in Kovrov, Russia

Now
46 °F

Clear.


Feels Like: 42 °F
Forecast: 40 / 57 °F
Wind: 8 mph from East

Location: Nizhny Novgorod/Strigino

Current Time: Apr 29, 2016 at 3:30:34 AM

Latest Report: Apr 29, 2016 at 2:30 AM


Visibility: 10 mi

Pressure: 30.30 "Hg

Humidity: 40%

Dew Point: 23 °F

Location of KovrovLocation

Historic Weather in Kovrov — Graph

°F

Kovrov Temperature Yesterday

Maximum temperature yesterday: 61 °F (at 1:30 PM)
Minimum temperature yesterday: 48 °F (at 5:00 AM)
Average temperature yesterday: 55 °F

High & Low Weather Summary for the Past Weeks

 TemperatureHumidityPressure
High70 °F (Apr 16, 3:00 PM)100% (Apr 15, 10:30 PM)30.30 "Hg (Apr 15, 10:30 PM)
Low32 °F (Apr 17, 11:30 PM)21% (Apr 27, 5:00 PM)29.27 "Hg (Apr 21, 9:30 PM)
Average50 °F65%29.81 "Hg
* Reported Apr 14 2:30 AM — Apr 29 2:00 AM, Kovrov, Weather by CustomWeather, © 2016

Note: Actual official high and low records may vary slightly from our data, if they occured in-between our weather recording intervals... More about our weather records

Advertising

Kovrov Weather History for the Previous 24 Hours

Scroll right to see more
 ConditionsComfort  
Time TempWeatherWind HumidityBarometerVisibility
2:00 AM
Fri, Apr 29
46 °FClear.6 mph43%30.30 "Hg10 mi
1:30 AM46 °FClear.3 mph43%30.30 "Hg10 mi
1:00 AM48 °FClear.6 mph37%30.27 "Hg10 mi
12:30 AM50 °FClear.6 mph35%30.27 "Hg10 mi
12:00 AM50 °FClear.6 mph35%30.27 "Hg10 mi
11:30 PM
Thu, Apr 28
50 °FClear.6 mph35%30.27 "Hg10 mi
11:00 PM50 °FClear.3 mph35%30.27 "Hg10 mi
10:30 PM50 °FClear.6 mph35%30.27 "Hg10 mi
10:00 PM52 °FClear.6 mph30%30.27 "Hg10 mi
9:30 PM52 °FClear.6 mph32%30.27 "Hg10 mi
9:00 PM54 °FClear.6 mph30%30.27 "Hg10 mi
8:30 PM54 °FClear.3 mph30%30.27 "Hg10 mi
8:00 PM55 °FClear.3 mph26%30.24 "Hg10 mi
7:30 PM57 °FSunny.8 mph27%30.24 "Hg10 mi
7:00 PM57 °FSunny.10 mph25%30.24 "Hg10 mi
6:30 PM59 °FSunny.13 mph25%30.24 "Hg10 mi
6:00 PM59 °FSunny.15 mph23%30.24 "Hg10 mi
5:30 PM61 °FSunny.13 mph22%30.24 "Hg10 mi
5:00 PM61 °FSunny.13 mph22%30.24 "Hg10 mi
4:30 PM61 °FSunny.15 mph22%30.24 "Hg10 mi
4:00 PM61 °FSunny.13 mph23%30.24 "Hg10 mi
3:30 PM61 °FSunny.15 mph22%30.24 "Hg10 mi
3:00 PM61 °FSunny.15 mph22%30.24 "Hg10 mi
2:30 PM61 °FSunny.17 mph23%30.24 "Hg10 mi
2:00 PM61 °FSunny.15 mph23%30.24 "Hg10 mi
1:30 PM61 °FSunny.15 mph23%30.24 "Hg10 mi
1:00 PM59 °FSunny.20 mph23%30.24 "Hg10 mi
12:30 PM59 °FSunny.17 mph25%30.24 "Hg10 mi
12:00 PM57 °FSunny.17 mph25%30.24 "Hg10 mi
11:00 AM57 °FSunny.15 mph27%30.24 "Hg10 mi
10:30 AM55 °FSunny.13 mph31%30.24 "Hg10 mi
9:00 AM54 °FSunny.17 mph33%30.27 "Hg10 mi
8:30 AM52 °FSunny.17 mph35%30.24 "Hg10 mi
8:00 AM52 °FSunny.17 mph35%30.24 "Hg10 mi
7:00 AM50 °FSunny.15 mph43%30.24 "Hg10 mi
6:30 AM50 °FSunny.17 mph47%30.24 "Hg10 mi
6:00 AM50 °FSunny.13 mph50%30.21 "Hg10 mi
5:30 AM48 °FSunny.13 mph58%30.21 "Hg10 mi
5:00 AM48 °FSunny.13 mph58%30.21 "Hg10 mi
4:30 AM50 °FSunny.13 mph54%30.21 "Hg10 mi
4:00 AM50 °FClear.10 mph50%30.21 "Hg10 mi
3:30 AM50 °FClear.10 mph47%30.18 "Hg10 mi
3:00 AM52 °FClear.10 mph44%30.18 "Hg10 mi
Weather by CustomWeather, © 2016

See weather overviewHow to use our weather pages